Showing default

SAOCOM 1-B, 46265

Orbit data source: Space-Track

SAOCOM 1-B, 46265 is a payload satellite owned by CONAE Tabanera (AR) in SSO that was launched on Sun, 30 Aug 2020 UTC via an FALCON 9 launch vehicle from the Air Force Eastern Test Range (AFETR). Payload-class satellites include a variety of spacecraft equipped with specific instruments for various scientific and technological missions. These include communications satellites like Starlink; space stations such as the ISS; scientific satellites like the Hubble; Earth observation satellites from companies like Planet Labs, Umbra, and HawkEye 360; GPS; miniature CubeSats for education and research; and military/defense satellites.

Loading next visibility...
Identifier
46265, 2020-059A
Orbit
SSO
Country
Flag of ARAR / ARGN
Related business
Manufacturer
INVAP
Mission
Operational Civil Radar Imaging
Bus & Motor
SAOCOM, Unknown motor
Mass
3,050 kg wet, ~2,700 kg dry
Launch date (UTC)
2020-08-30 (6 years ago)
Launch vehicle
FALCON 9
Launch site
Air Force Eastern Test Range (AFETR)
Object type
Payload
Rocket body
Debris
Shape & HBR
Cyl + 2 Pan, 10.0 m
Radar Cross Section
19.776 m², Large (>1 m²)

Expand to show TLE details & history
Last TLE update: 23 hours ago

TLE from 23 hours ago
0 SAOCOM 1-B
1 46265U 20059A   26172.48788333  .00000696  00000-0  93980-4 0  9995
2 46265  97.8892 358.2684 0001631  85.2510 274.8890 14.82150660314128
Epoch: 2026-06-21T11:42Z
TLE epoch observation values (Epoch: 2026-06-21T11:42:33.119Z)
Latitude
0.00003°
Longitude
-87.05704°
Altitude
625.471 km
Speed
7.546 km/s
True Right ascension
23h 53m 04s
True Declination
0° 00' 00"
Sunlit
Object was in daylight at epoch
Visualization orbit readout
Latitude
Unknown
Longitude
Unknown
Altitude
Unknown
Speed
Unknown
Apparent Right ascension
Unknown
Apparent Declination
Unknown
Sunlit
N/A
Visualization observer readout
Local Sidereal Time
21:36:12
Azimuth
Unknown
Elevation
Unknown
Doppler factor
Unknown
Orbital elements
Apogee altitude
620.723 km
Perigee altitude
618.44 km
Semi-major axis
6,997.718 km
Eccentricity
0.00016
Inclination
97.8892°
RAAN
358.2684°
Arg. of periapsis
85.251°
True anomaly
274.87038°
Mean anomaly
274.889°
Eccentric anomaly
274.87969°
Mean motion
3.70773 °/min
Orbital period
97.09 mins
BSTAR
0.00009398
Loading maneuver chart data...
Computing Atmospheric mass density...
Loading historical data...
Loading historical data...
Loading historical data...
Loading historical data...
Loading historical data...
Loading historical data...
Loading historical data...
Other satellites on launch #59 in the year 2020 (2020-08-30 UTC)

Documentation

Showing up to 5 results
|